Time,TemperatureF,DewpointF,PressureIn,WindDirection,WindDirectionDegrees,WindSpeedMPH,WindSpeedGustMPH,Humidity,HourlyPrecipIn,Conditions,Clouds,dailyrainin,SoftwareType,DateUTC
2013-03-25 00:00:00,39.2,25.2,29.59,SE,135,0.0,0.0,57,0.00,SCT,,0.00,WeatherDisplay:10.37,2013-03-25 04:00:00,
2013-03-25 00:01:00,39.4,25.4,29.59,SSE,158,0.0,0.0,57,0.00,SCT,,0.00,WeatherDisplay:10.37,2013-03-25 04:01:00,
2013-03-25 00:04:00,39.4,25.4,29.59,SE,135,0.0,0.0,57,0.00,SCT,,0.00,WeatherDisplay:10.37,2013-03-25 04:04:00,
2013-03-25 00:07:00,39.4,25.4,29.59,SE,135,0.0,0.0,57,0.00,SCT,,0.00,WeatherDisplay:10.37,2013-03-25 04:07:00,
2013-03-25 00:12:00,39.4,25.4,29.59,SE,135,0.0,0.0,57,0.00,SCT,,0.00,WeatherDisplay:10.37,2013-03-25 04:12:00,
2013-03-25 00:17:00,39.0,25.1,29.59,ESE,112,0.0,0.0,57,0.00,OVC,,0.00,WeatherDisplay:10.37,2013-03-25 04:17:00,
2013-03-25 00:22:00,39.0,25.1,29.58,SE,135,0.0,0.0,57,0.00,OVC,,0.00,WeatherDisplay:10.37,2013-03-25 04:22:00,
2013-03-25 00:27:00,39.0,25.1,29.58,SE,135,0.0,0.0,57,0.00,OVC,,0.00,WeatherDisplay:10.37,2013-03-25 04:27:00,
2013-03-25 00:32:00,38.8,24.9,29.58,ESE,112,0.0,0.0,57,0.00,OVC,,0.00,WeatherDisplay:10.37,2013-03-25 04:32:00,
2013-03-25 00:37:00,38.8,24.9,29.58,SSE,158,0.0,0.0,57,0.00,OVC,,0.00,WeatherDisplay:10.37,2013-03-25 04:37:00,
2013-03-25 00:42:00,38.8,24.9,29.57,SE,135,0.0,0.0,57,0.00,OVC,,0.00,WeatherDisplay:10.37,2013-03-25 04:42:00,
2013-03-25 00:48:00,38.8,25.3,29.57,South,180,0.0,0.0,58,0.00,OVC,,0.00,WeatherDisplay:10.37,2013-03-25 04:48:00,
2013-03-25 00:53:00,38.8,25.3,29.57,SE,135,0.0,0.0,58,0.00,OVC,,0.00,WeatherDisplay:10.37,2013-03-25 04:53:00,
2013-03-25 00:58:00,39.0,25.5,29.58,SSE,158,0.0,0.0,58,0.00,OVC,,0.00,WeatherDisplay:10.37,2013-03-25 04:58:00,
2013-03-25 01:03:00,38.8,25.3,29.58,SSE,158,0.0,0.0,58,0.00,OVC,,0.00,WeatherDisplay:10.37,2013-03-25 05:03:00,
2013-03-25 01:08:00,39.0,25.5,29.58,SSE,158,0.0,0.0,58,0.00,OVC,,0.00,WeatherDisplay:10.37,2013-03-25 05:08:00,
2013-03-25 01:13:00,38.8,25.7,29.58,SSE,158,1.1,1.1,59,0.00,OVC,,0.00,WeatherDisplay:10.37,2013-03-25 05:13:00,
2013-03-25 01:18:00,38.8,25.7,29.57,South,180,0.0,0.1,59,0.00,OVC,,0.00,WeatherDisplay:10.37,2013-03-25 05:18:00,
2013-03-25 01:23:00,38.8,25.7,29.57,SE,135,0.0,0.0,59,0.00,OVC,,0.00,WeatherDisplay:10.37,2013-03-25 05:23:00,
2013-03-25 01:28:00,38.8,25.7,29.57,SSE,158,2.3,2.3,59,0.00,OVC,,0.00,WeatherDisplay:10.37,2013-03-25 05:28:00,
2013-03-25 01:33:00,38.8,25.7,29.57,SSE,158,0.0,0.1,59,0.00,OVC,,0.00,WeatherDisplay:10.37,2013-03-25 05:33:00,
2013-03-25 01:38:00,38.7,25.6,29.58,SE,135,1.1,1.1,59,0.00,OVC,,0.00,WeatherDisplay:10.37,2013-03-25 05:38:00,
2013-03-25 01:43:00,38.7,25.6,29.58,SE,135,1.1,1.1,59,0.00,OVC,,0.00,WeatherDisplay:10.37,2013-03-25 05:43:00,
2013-03-25 01:48:00,38.7,26.0,29.58,SSE,158,1.3,1.3,60,0.00,OVC,,0.00,WeatherDisplay:10.37,2013-03-25 05:48:00,
2013-03-25 01:53:00,38.7,26.0,29.58,ESE,112,1.1,1.1,60,0.00,OVC,,0.00,WeatherDisplay:10.37,2013-03-25 05:53:00,
2013-03-25 01:58:00,38.7,26.0,29.57,NE,45,0.0,0.2,60,0.00,OVC,,0.00,WeatherDisplay:10.37,2013-03-25 05:58:00,
2013-03-25 02:03:00,38.7,26.0,29.57,ENE,68,0.0,0.0,60,0.00,OVC,,0.00,WeatherDisplay:10.37,2013-03-25 06:03:00,
2013-03-25 02:08:00,38.7,26.0,29.57,SSE,158,0.0,0.0,60,0.00,OVC,,0.00,WeatherDisplay:10.37,2013-03-25 06:08:00,
2013-03-25 02:13:00,38.7,26.0,29.57,NE,45,0.0,0.0,60,0.00,OVC,,0.00,WeatherDisplay:10.37,2013-03-25 06:13:00,
2013-03-25 02:18:00,38.5,26.2,29.56,ESE,112,0.0,0.0,61,0.00,OVC,,0.00,WeatherDisplay:10.37,2013-03-25 06:18:00,
2013-03-25 02:24:00,38.3,26.0,29.56,ENE,68,0.0,0.0,61,0.00,OVC,,0.00,WeatherDisplay:10.37,2013-03-25 06:24:00,
2013-03-25 02:29:00,38.3,26.4,29.56,ENE,68,1.1,1.1,62,0.00,OVC,,0.00,WeatherDisplay:10.37,2013-03-25 06:29:00,
2013-03-25 02:34:00,38.3,26.8,29.56,ENE,68,2.3,2.3,63,0.00,OVC,,0.00,WeatherDisplay:10.37,2013-03-25 06:34:00,
2013-03-25 02:39:00,38.3,26.8,29.54,NNE,22,4.6,4.6,63,0.00,OVC,,0.00,WeatherDisplay:10.37,2013-03-25 06:39:00,
2013-03-25 02:44:00,38.3,26.8,29.54,ENE,68,2.3,2.3,63,0.00,OVC,,0.00,WeatherDisplay:10.37,2013-03-25 06:44:00,
2013-03-25 02:49:00,38.5,27.0,29.54,ESE,112,1.1,1.1,63,0.00,OVC,,0.00,WeatherDisplay:10.37,2013-03-25 06:49:00,
2013-03-25 02:54:00,38.5,27.0,29.54,North,0,0.0,0.5,63,0.00,OVC,,0.00,WeatherDisplay:10.37,2013-03-25 06:54:00,
2013-03-25 02:59:00,38.5,27.0,29.54,NE,45,0.0,0.0,63,0.00,OVC,,0.00,WeatherDisplay:10.37,2013-03-25 06:59:00,
2013-03-25 03:04:00,38.3,27.2,29.54,ENE,68,2.3,2.3,64,0.00,OVC,,0.00,WeatherDisplay:10.37,2013-03-25 07:04:00,
2013-03-25 03:09:00,38.3,26.8,29.54,ENE,68,2.3,2.3,63,0.00,OVC,,0.00,WeatherDisplay:10.37,2013-03-25 07:09:00,
2013-03-25 03:14:00,38.5,27.0,29.54,ENE,68,2.3,2.3,63,0.00,OVC,,0.00,WeatherDisplay:10.37,2013-03-25 07:14:00,
2013-03-25 03:19:00,38.5,27.0,29.52,ENE,68,2.3,2.3,63,0.00,OVC,,0.00,WeatherDisplay:10.37,2013-03-25 07:19:00,
2013-03-25 03:24:00,38.7,27.1,29.52,East,90,0.0,1.1,63,0.00,OVC,,0.00,WeatherDisplay:10.37,2013-03-25 07:24:00,
2013-03-25 03:29:00,38.7,27.1,29.52,NE,45,1.1,1.1,63,0.00,OVC,,0.00,WeatherDisplay:10.37,2013-03-25 07:29:00,
2013-03-25 03:34:00,38.7,27.1,29.52,WSW,248,2.3,2.3,63,0.00,OVC,,0.00,WeatherDisplay:10.37,2013-03-25 07:34:00,
2013-03-25 03:39:00,38.7,27.1,29.51,ENE,68,2.3,2.3,63,0.00,OVC,,0.00,WeatherDisplay:10.37,2013-03-25 07:39:00,
2013-03-25 03:44:00,38.7,26.8,29.51,ENE,68,2.3,2.3,62,0.00,OVC,,0.00,WeatherDisplay:10.37,2013-03-25 07:44:00,
2013-03-25 03:49:00,38.7,26.8,29.51,ENE,68,2.3,2.3,62,0.00,OVC,,0.00,WeatherDisplay:10.37,2013-03-25 07:49:00,
2013-03-25 03:54:00,38.7,26.8,29.51,ENE,68,1.1,1.5,62,0.00,OVC,,0.00,WeatherDisplay:10.37,2013-03-25 07:54:00,
2013-03-25 03:59:00,38.7,26.8,29.50,ENE,68,3.5,3.5,62,0.00,OVC,,0.00,WeatherDisplay:10.37,2013-03-25 07:59:00,
2013-03-25 04:04:00,38.7,26.8,29.50,North,0,2.3,2.3,62,0.00,OVC,,0.00,WeatherDisplay:10.37,2013-03-25 08:04:00,
2013-03-25 04:09:00,38.8,26.5,29.50,ENE,68,4.6,4.6,61,0.00,OVC,,0.00,WeatherDisplay:10.37,2013-03-25 08:09:00,
2013-03-25 04:14:00,38.8,26.5,29.50,NNE,22,2.3,2.3,61,0.00,OVC,,0.00,WeatherDisplay:10.37,2013-03-25 08:14:00,
2013-03-25 04:19:00,38.8,26.5,29.49,ENE,68,2.3,2.3,61,0.00,OVC,,0.00,WeatherDisplay:10.37,2013-03-25 08:19:00,
2013-03-25 04:24:00,38.8,26.5,29.49,East,90,2.3,2.3,61,0.00,OVC,,0.00,WeatherDisplay:10.37,2013-03-25 08:24:00,
2013-03-25 04:29:00,38.8,26.5,29.49,ENE,68,3.5,3.5,61,0.00,OVC,,0.00,WeatherDisplay:10.37,2013-03-25 08:29:00,
2013-03-25 04:34:00,39.0,26.7,29.49,East,90,2.3,2.3,61,0.00,OVC,,0.00,WeatherDisplay:10.37,2013-03-25 08:34:00,
2013-03-25 04:39:00,38.8,26.1,29.48,NE,45,4.6,4.6,60,0.00,OVC,,0.00,WeatherDisplay:10.37,2013-03-25 08:39:00,
2013-03-25 04:44:00,39.0,26.3,29.48,NE,45,4.6,4.6,60,0.00,OVC,,0.00,WeatherDisplay:10.37,2013-03-25 08:44:00,
2013-03-25 04:49:00,39.0,25.9,29.48,ENE,68,3.5,3.5,59,0.00,OVC,,0.00,WeatherDisplay:10.37,2013-03-25 08:49:00,
2013-03-25 04:54:00,39.0,25.9,29.48,ENE,68,4.6,4.6,59,0.00,OVC,,0.00,WeatherDisplay:10.37,2013-03-25 08:54:00,
2013-03-25 04:59:00,39.4,25.8,29.48,ENE,68,5.8,5.8,58,0.00,OVC,,0.00,WeatherDisplay:10.37,2013-03-25 08:59:00,
2013-03-25 05:04:00,39.4,25.8,29.48,East,90,4.6,4.6,58,0.00,OVC,,0.00,WeatherDisplay:10.37,2013-03-25 09:04:00,
2013-03-25 05:09:00,39.2,25.6,29.48,NE,45,6.9,6.9,58,0.00,OVC,,0.00,WeatherDisplay:10.37,2013-03-25 09:09:00,
2013-03-25 05:14:00,39.2,25.2,29.48,East,90,4.6,4.6,57,0.00,OVC,,0.00,WeatherDisplay:10.37,2013-03-25 09:14:00,
2013-03-25 05:19:00,39.2,25.2,29.48,SE,135,3.5,3.5,57,0.00,OVC,,0.00,WeatherDisplay:10.37,2013-03-25 09:19:00,
2013-03-25 05:24:00,39.2,25.2,29.48,NNE,22,4.6,4.6,57,0.00,OVC,,0.00,WeatherDisplay:10.37,2013-03-25 09:24:00,
2013-03-25 05:29:00,39.2,25.2,29.48,ENE,68,3.5,3.8,57,0.00,OVC,,0.00,WeatherDisplay:10.37,2013-03-25 09:29:00,
2013-03-25 05:34:00,39.4,25.4,29.48,East,90,3.5,3.5,57,0.00,OVC,,0.00,WeatherDisplay:10.37,2013-03-25 09:34:00,
2013-03-25 05:39:00,39.4,25.4,29.49,NNW,338,5.8,5.8,57,0.00,OVC,,0.00,WeatherDisplay:10.37,2013-03-25 09:39:00,
2013-03-25 05:44:00,39.4,25.8,29.49,NE,45,5.8,5.8,58,0.00,OVC,,0.00,WeatherDisplay:10.37,2013-03-25 09:44:00,
2013-03-25 05:49:00,39.4,25.8,29.49,ENE,68,4.6,4.6,58,0.00,OVC,,0.00,WeatherDisplay:10.37,2013-03-25 09:49:00,
2013-03-25 05:54:00,39.2,25.6,29.49,East,90,8.1,8.1,58,0.00,OVC,,0.00,WeatherDisplay:10.37,2013-03-25 09:54:00,
2013-03-25 05:59:00,39.4,25.8,29.49,East,90,4.6,4.6,58,0.00,OVC,,0.00,WeatherDisplay:10.37,2013-03-25 09:59:00,
2013-03-25 06:04:00,39.2,26.1,29.49,NNW,338,2.3,2.4,59,0.00,OVC,,0.00,WeatherDisplay:10.37,2013-03-25 10:04:00,
2013-03-25 06:09:00,39.4,26.2,29.49,NNW,338,2.3,2.4,59,0.00,OVC,,0.00,WeatherDisplay:10.37,2013-03-25 10:09:00,
2013-03-25 06:14:00,39.4,26.6,29.49,East,90,2.3,3.5,60,0.00,OVC,,0.00,WeatherDisplay:10.37,2013-03-25 10:14:00,
2013-03-25 06:19:00,39.4,26.6,29.48,ENE,68,4.6,4.6,60,0.00,OVC,,0.00,WeatherDisplay:10.37,2013-03-25 10:19:00,
2013-03-25 06:24:00,39.4,26.6,29.48,NE,45,6.9,6.9,60,0.00,OVC,,0.00,WeatherDisplay:10.37,2013-03-25 10:24:00,
2013-03-25 06:29:00,39.4,26.6,29.48,ENE,68,6.9,6.9,60,0.00,OVC,,0.00,WeatherDisplay:10.37,2013-03-25 10:29:00,
2013-03-25 06:34:00,39.4,26.6,29.48,ENE,68,4.6,4.8,60,0.00,OVC,,0.00,WeatherDisplay:10.37,2013-03-25 10:34:00,
2013-03-25 06:39:00,39.4,26.6,29.47,ENE,68,4.6,4.6,60,0.00,OVC,,0.00,WeatherDisplay:10.37,2013-03-25 10:39:00,
2013-03-25 06:44:00,39.4,26.6,29.47,SE,135,6.9,6.9,60,0.00,OVC,,0.00,WeatherDisplay:10.37,2013-03-25 10:44:00,
2013-03-25 06:49:00,39.4,27.0,29.47,NE,45,9.2,9.2,61,0.00,OVC,,0.00,WeatherDisplay:10.37,2013-03-25 10:49:00,
2013-03-25 06:54:00,39.2,26.9,29.47,ENE,68,6.9,6.9,61,0.00,OVC,,0.00,WeatherDisplay:10.37,2013-03-25 10:54:00,
2013-03-25 06:59:00,39.4,27.0,29.45,ENE,68,2.3,3.5,61,0.00,OVC,,0.00,WeatherDisplay:10.37,2013-03-25 10:59:00,
2013-03-25 07:05:00,39.2,27.3,29.45,ENE,68,8.1,8.1,62,0.00,OVC,,0.00,WeatherDisplay:10.37,2013-03-25 11:05:00,
2013-03-25 07:10:00,39.4,27.4,29.45,ENE,68,3.5,4.3,62,0.00,OVC,,0.00,WeatherDisplay:10.37,2013-03-25 11:10:00,
2013-03-25 07:15:00,39.2,27.3,29.45,ENE,68,5.8,5.8,62,0.00,OVC,,0.00,WeatherDisplay:10.37,2013-03-25 11:15:00,
2013-03-25 07:20:00,39.0,27.1,29.47,ENE,68,4.1,4.1,62,0.00,OVC,,0.00,WeatherDisplay:10.37,2013-03-25 11:20:00,
2013-03-25 07:25:00,39.0,27.1,29.47,NNW,338,5.8,5.8,62,0.00,OVC,,0.00,WeatherDisplay:10.37,2013-03-25 11:25:00,
2013-03-25 07:30:00,39.0,27.5,29.47,WSW,248,4.6,4.6,63,0.00,OVC,,0.00,WeatherDisplay:10.37,2013-03-25 11:30:00,
2013-03-25 07:35:00,39.4,27.8,29.47,ENE,68,5.8,5.8,63,0.00,OVC,,0.00,WeatherDisplay:10.37,2013-03-25 11:35:00,
2013-03-25 07:40:00,39.0,27.5,29.47,ENE,68,6.9,6.9,63,0.00,OVC,,0.00,WeatherDisplay:10.37,2013-03-25 11:40:00,
2013-03-25 07:45:00,39.0,27.5,29.47,North,0,5.8,5.8,63,0.00,OVC,,0.00,WeatherDisplay:10.37,2013-03-25 11:45:00,
2013-03-25 07:50:00,39.0,27.5,29.47,East,90,5.8,5.8,63,0.00,OVC,,0.00,WeatherDisplay:10.37,2013-03-25 11:50:00,
2013-03-25 07:55:00,39.0,27.5,29.47,ENE,68,6.9,6.9,63,0.00,OVC,,0.00,WeatherDisplay:10.37,2013-03-25 11:55:00,
2013-03-25 08:00:00,39.2,27.7,29.48,ENE,68,4.6,4.6,63,0.00,OVC,,0.00,WeatherDisplay:10.37,2013-03-25 12:00:00,
2013-03-25 08:05:00,39.0,27.5,29.48,East,90,6.9,6.9,63,0.00,OVC,,0.00,WeatherDisplay:10.37,2013-03-25 12:05:00,
2013-03-25 08:10:00,39.4,27.8,29.48,NNW,338,4.6,4.6,63,0.00,OVC,,0.00,WeatherDisplay:10.37,2013-03-25 12:10:00,
2013-03-25 08:15:00,39.4,27.8,29.48,ENE,68,5.8,5.8,63,0.00,OVC,,0.00,WeatherDisplay:10.37,2013-03-25 12:15:00,
2013-03-25 08:20:00,39.4,27.4,29.49,ESE,112,4.6,4.6,62,0.00,OVC,,0.00,WeatherDisplay:10.37,2013-03-25 12:20:00,
2013-03-25 08:25:00,39.4,27.4,29.49,ENE,68,5.1,5.1,62,0.00,OVC,,0.00,WeatherDisplay:10.37,2013-03-25 12:25:00,
2013-03-25 08:30:00,39.4,27.4,29.49,ENE,68,6.9,6.9,62,0.00,OVC,,0.00,WeatherDisplay:10.37,2013-03-25 12:30:00,
2013-03-25 08:35:00,39.6,27.2,29.49,NE,45,8.1,8.1,61,0.00,OVC,,0.00,WeatherDisplay:10.37,2013-03-25 12:35:00,
2013-03-25 08:40:00,39.6,27.2,29.48,NW,315,5.8,5.8,61,0.00,OVC,,0.00,WeatherDisplay:10.37,2013-03-25 12:40:00,
2013-03-25 08:46:00,39.7,27.4,29.48,ENE,68,6.0,6.0,61,0.00,OVC,,0.00,WeatherDisplay:10.37,2013-03-25 12:46:00,
2013-03-25 08:51:00,39.7,27.4,29.48,ESE,112,4.7,4.7,61,0.00,OVC,,0.00,WeatherDisplay:10.37,2013-03-25 12:51:00,
2013-03-25 08:56:00,39.7,27.0,29.48,ENE,68,5.8,5.8,60,0.00,OVC,,0.00,WeatherDisplay:10.37,2013-03-25 12:56:00,
2013-03-25 09:01:00,39.7,26.6,29.47,ENE,68,10.4,10.4,59,0.00,OVC,,0.00,WeatherDisplay:10.37,2013-03-25 13:01:00,
2013-03-25 09:06:00,39.7,26.6,29.47,ENE,68,6.8,6.8,59,0.00,OVC,,0.00,WeatherDisplay:10.37,2013-03-25 13:06:00,
2013-03-25 09:12:00,39.6,26.4,29.47,ENE,68,9.5,9.5,59,0.00,OVC,,0.00,WeatherDisplay:10.37,2013-03-25 13:12:00,
2013-03-25 09:17:00,39.6,26.8,29.47,ENE,68,11.5,11.5,60,0.00,OVC,,0.00,WeatherDisplay:10.37,2013-03-25 13:17:00,
2013-03-25 09:22:00,39.4,26.6,29.47,ENE,68,10.4,10.4,60,0.00,OVC,,0.00,WeatherDisplay:10.37,2013-03-25 13:22:00,
2013-03-25 09:27:00,39.4,27.0,29.47,NE,45,8.4,8.4,61,0.00,OVC,,0.00,WeatherDisplay:10.37,2013-03-25 13:27:00,
2013-03-25 09:32:00,39.0,27.1,29.47,ENE,68,5.9,5.9,62,0.00,OVC,,0.00,WeatherDisplay:10.37,2013-03-25 13:32:00,
2013-03-25 09:37:00,38.8,27.7,29.47,NE,45,9.2,9.2,64,0.00,OVC,,0.00,WeatherDisplay:10.37,2013-03-25 13:37:00,
2013-03-25 09:42:00,38.8,27.7,29.47,ESE,112,5.8,5.8,64,0.00,OVC,,0.00,WeatherDisplay:10.37,2013-03-25 13:42:00,
2013-03-25 09:47:00,38.7,27.5,29.47,East,90,8.6,8.6,64,0.00,OVC,,0.00,WeatherDisplay:10.37,2013-03-25 13:47:00,
2013-03-25 09:52:00,38.7,27.5,29.47,ENE,68,7.5,7.5,64,0.00,OVC,,0.00,WeatherDisplay:10.37,2013-03-25 13:52:00,
2013-03-25 09:57:00,38.5,26.6,29.47,East,90,9.2,9.2,62,0.00,OVC,,0.00,WeatherDisplay:10.37,2013-03-25 13:57:00,
2013-03-25 10:02:00,38.7,26.8,29.46,ENE,68,9.2,9.2,62,0.00,OVC,,0.00,WeatherDisplay:10.37,2013-03-25 14:02:00,
2013-03-25 10:07:00,38.7,27.1,29.46,ESE,112,8.1,8.1,63,0.00,OVC,,0.00,WeatherDisplay:10.37,2013-03-25 14:07:00,
2013-03-25 10:12:00,38.3,27.6,29.46,NE,45,13.8,13.8,65,0.00,OVC,,0.00,WeatherDisplay:10.37,2013-03-25 14:12:00,
2013-03-25 10:18:00,38.3,27.2,29.46,ENE,68,12.2,12.2,64,0.00,OVC,,0.00,WeatherDisplay:10.37,2013-03-25 14:18:00,
2013-03-25 10:23:00,38.1,27.8,29.46,ENE,68,9.2,9.2,66,0.00,OVC,,0.00,WeatherDisplay:10.37,2013-03-25 14:23:00,
2013-03-25 10:28:00,38.1,28.1,29.46,ENE,68,9.2,9.2,67,0.00,OVC,,0.00,WeatherDisplay:10.37,2013-03-25 14:28:00,
2013-03-25 10:33:00,37.8,28.5,29.46,East,90,13.8,13.8,69,0.00,OVC,,0.00,WeatherDisplay:10.37,2013-03-25 14:33:00,
2013-03-25 10:38:00,37.4,28.9,29.46,East,90,10.8,10.8,71,0.00,OVC,,0.00,WeatherDisplay:10.37,2013-03-25 14:38:00,
2013-03-25 10:43:00,37.6,29.0,29.46,NE,45,5.8,5.8,71,0.00,OVC,,0.00,WeatherDisplay:10.37,2013-03-25 14:43:00,
2013-03-25 10:48:00,37.4,28.9,29.46,ENE,68,5.2,5.2,71,0.00,OVC,,0.00,WeatherDisplay:10.37,2013-03-25 14:48:00,
2013-03-25 10:53:00,37.4,29.2,29.46,ENE,68,16.1,16.1,72,0.00,OVC,,0.00,WeatherDisplay:10.37,2013-03-25 14:53:00,
2013-03-25 10:58:00,37.0,29.2,29.45,ENE,68,13.8,13.8,73,0.00,OVC,,0.00,WeatherDisplay:10.37,2013-03-25 14:58:00,
2013-03-25 11:03:00,36.9,29.3,29.45,ENE,68,4.6,6.6,74,0.00,OVC,,0.00,WeatherDisplay:10.37,2013-03-25 15:03:00,
2013-03-25 11:08:00,36.7,29.5,29.45,ENE,68,11.5,11.5,75,0.00,OVC,,0.00,WeatherDisplay:10.37,2013-03-25 15:08:00,
2013-03-25 11:13:00,36.5,30.0,29.45,ENE,68,10.4,10.4,77,0.00,OVC,,0.00,WeatherDisplay:10.37,2013-03-25 15:13:00,
2013-03-25 11:18:00,36.3,30.4,29.45,SE,135,4.6,5.9,79,0.00,OVC,,0.00,WeatherDisplay:10.37,2013-03-25 15:18:00,
2013-03-25 11:23:00,36.1,30.3,29.45,ENE,68,9.2,9.2,79,0.00,OVC,,0.00,WeatherDisplay:10.37,2013-03-25 15:23:00,
2013-03-25 11:29:00,35.8,30.5,29.45,ENE,68,10.4,10.4,81,0.00,OVC,,0.00,WeatherDisplay:10.37,2013-03-25 15:29:00,
2013-03-25 11:34:00,35.4,30.8,29.45,NE,45,8.1,8.1,83,0.00,OVC,,0.00,WeatherDisplay:10.37,2013-03-25 15:34:00,
2013-03-25 11:39:00,34.9,30.8,29.45,East,90,5.8,5.9,85,0.00,OVC,,0.00,WeatherDisplay:10.37,2013-03-25 15:39:00,
2013-03-25 11:44:00,34.7,30.9,29.45,ENE,68,4.6,4.6,86,0.00,OVC,,0.00,WeatherDisplay:10.37,2013-03-25 15:44:00,
2013-03-25 11:49:00,34.5,30.8,29.45,ENE,68,4.6,4.6,86,0.00,OVC,,0.00,WeatherDisplay:10.37,2013-03-25 15:49:00,
2013-03-25 11:54:00,34.7,31.2,29.45,ENE,68,5.8,5.8,87,0.00,OVC,,0.00,WeatherDisplay:10.37,2013-03-25 15:54:00,
2013-03-25 11:59:00,34.3,30.9,29.44,ENE,68,4.6,4.6,87,0.00,OVC,,0.00,WeatherDisplay:10.37,2013-03-25 15:59:00,
2013-03-25 12:04:00,34.3,30.9,29.44,NNE,22,5.8,5.8,87,0.00,OVC,,0.00,WeatherDisplay:10.37,2013-03-25 16:04:00,
2013-03-25 12:09:00,34.5,31.0,29.44,NNE,22,1.1,3.6,87,0.00,OVC,,0.00,WeatherDisplay:10.37,2013-03-25 16:09:00,
2013-03-25 12:14:00,34.3,31.2,29.44,NNE,22,1.1,3.6,88,0.00,OVC,,0.00,WeatherDisplay:10.37,2013-03-25 16:14:00,
2013-03-25 12:19:00,34.5,31.3,29.42,ENE,68,3.5,3.5,88,0.00,OVC,,0.00,WeatherDisplay:10.37,2013-03-25 16:19:00,
2013-03-25 12:24:00,34.7,31.5,29.42,ENE,68,2.3,2.3,88,0.00,OVC,,0.00,WeatherDisplay:10.37,2013-03-25 16:24:00,
2013-03-25 12:29:00,35.1,32.1,29.42,ENE,68,3.5,3.5,89,0.00,OVC,,0.00,WeatherDisplay:10.37,2013-03-25 16:29:00,
2013-03-25 12:35:00,35.1,32.1,29.42,NW,315,4.6,4.6,89,0.03,RA,,0.03,WeatherDisplay:10.37,2013-03-25 16:35:00,
2013-03-25 12:40:00,35.1,32.1,29.41,NNE,22,2.3,2.3,89,0.03,RA,,0.03,WeatherDisplay:10.37,2013-03-25 16:40:00,
2013-03-25 12:45:00,35.4,32.5,29.41,NNE,22,9.2,9.2,89,0.03,OVC,,0.03,WeatherDisplay:10.37,2013-03-25 16:45:00,
2013-03-25 12:50:00,35.4,32.5,29.41,ENE,68,5.8,5.8,89,0.03,OVC,,0.03,WeatherDisplay:10.37,2013-03-25 16:50:00,
2013-03-25 12:55:00,35.8,32.9,29.41,West,270,3.5,3.5,89,0.03,OVC,,0.03,WeatherDisplay:10.37,2013-03-25 16:55:00,
2013-03-25 13:00:00,36.0,32.8,29.40,ENE,68,8.1,8.1,88,0.03,OVC,,0.03,WeatherDisplay:10.37,2013-03-25 17:00:00,
2013-03-25 13:05:00,36.1,32.9,29.40,ENE,68,5.8,5.8,88,0.03,OVC,,0.03,WeatherDisplay:10.37,2013-03-25 17:05:00,
2013-03-25 13:10:00,36.5,33.3,29.40,ENE,68,8.1,8.1,88,0.03,OVC,,0.03,WeatherDisplay:10.37,2013-03-25 17:10:00,
2013-03-25 13:15:00,36.7,33.5,29.40,ENE,68,5.8,5.8,88,0.03,OVC,,0.03,WeatherDisplay:10.37,2013-03-25 17:15:00,
2013-03-25 13:20:00,36.9,33.4,29.39,ENE,68,8.1,8.1,87,0.03,OVC,,0.03,WeatherDisplay:10.37,2013-03-25 17:20:00,
2013-03-25 13:25:00,36.9,33.4,29.39,ESE,112,5.8,5.8,87,0.03,OVC,,0.03,WeatherDisplay:10.37,2013-03-25 17:25:00,
2013-03-25 13:30:00,37.2,33.1,29.39,NE,45,12.7,12.7,85,0.03,OVC,,0.03,WeatherDisplay:10.37,2013-03-25 17:30:00,
2013-03-25 13:35:00,37.2,33.1,29.39,ENE,68,12.7,12.7,85,0.00,OVC,,0.03,WeatherDisplay:10.37,2013-03-25 17:35:00,
2013-03-25 13:40:00,37.6,33.8,29.37,ESE,112,9.2,9.2,86,0.00,OVC,,0.03,WeatherDisplay:10.37,2013-03-25 17:40:00,
2013-03-25 13:45:00,37.9,33.8,29.37,East,90,9.2,9.2,85,0.00,OVC,,0.03,WeatherDisplay:10.37,2013-03-25 17:45:00,
2013-03-25 13:50:00,38.1,33.7,29.37,NE,45,16.1,16.1,84,0.00,OVC,,0.03,WeatherDisplay:10.37,2013-03-25 17:50:00,
2013-03-25 13:55:00,38.1,33.1,29.37,ENE,68,12.7,12.7,82,0.00,OVC,,0.03,WeatherDisplay:10.37,2013-03-25 17:55:00,
2013-03-25 14:00:00,38.1,33.1,29.36,ENE,68,10.4,10.4,82,0.00,OVC,,0.03,WeatherDisplay:10.37,2013-03-25 18:00:00,
2013-03-25 14:05:00,38.1,32.5,29.36,ENE,68,18.4,18.4,80,0.00,OVC,,0.03,WeatherDisplay:10.37,2013-03-25 18:05:00,
2013-03-25 14:10:00,37.9,32.6,29.36,East,90,10.4,10.4,81,0.00,OVC,,0.03,WeatherDisplay:10.37,2013-03-25 18:10:00,
2013-03-25 14:15:00,38.3,33.3,29.36,NE,45,8.1,8.1,82,0.00,OVC,,0.03,WeatherDisplay:10.37,2013-03-25 18:15:00,
2013-03-25 14:20:00,38.3,33.6,29.36,NNE,22,6.9,6.9,83,0.00,OVC,,0.03,WeatherDisplay:10.37,2013-03-25 18:20:00,
2013-03-25 14:26:00,38.3,33.6,29.36,NE,45,6.9,6.9,83,0.00,OVC,,0.03,WeatherDisplay:10.37,2013-03-25 18:26:00,
2013-03-25 14:31:00,37.9,33.2,29.36,East,90,8.1,8.1,83,0.00,OVC,,0.03,WeatherDisplay:10.37,2013-03-25 18:31:00,
2013-03-25 14:36:00,37.9,33.2,29.36,ENE,68,6.9,6.9,83,0.00,OVC,,0.03,WeatherDisplay:10.37,2013-03-25 18:36:00,
2013-03-25 14:41:00,37.4,33.0,29.36,East,90,4.6,4.9,84,0.00,OVC,,0.03,WeatherDisplay:10.37,2013-03-25 18:41:00,
2013-03-25 14:46:00,37.4,33.0,29.36,ENE,68,8.1,8.1,84,0.00,OVC,,0.03,WeatherDisplay:10.37,2013-03-25 18:46:00,
2013-03-25 14:51:00,37.2,32.8,29.36,East,90,10.4,10.4,84,0.00,OVC,,0.03,WeatherDisplay:10.37,2013-03-25 18:51:00,
2013-03-25 14:56:00,37.2,33.1,29.36,NE,45,4.6,5.5,85,0.00,OVC,,0.03,WeatherDisplay:10.37,2013-03-25 18:56:00,
2013-03-25 15:01:00,37.0,32.9,29.36,ENE,68,8.1,8.1,85,0.00,OVC,,0.03,WeatherDisplay:10.37,2013-03-25 19:01:00,
2013-03-25 15:06:00,36.9,33.1,29.36,NE,45,8.1,8.1,86,0.00,OVC,,0.03,WeatherDisplay:10.37,2013-03-25 19:06:00,
2013-03-25 15:11:00,36.9,33.1,29.36,ENE,68,6.9,6.9,86,0.00,OVC,,0.03,WeatherDisplay:10.37,2013-03-25 19:11:00,
2013-03-25 15:16:00,36.7,33.2,29.36,ENE,68,3.5,3.5,87,0.03,RA,,0.06,WeatherDisplay:10.37,2013-03-25 19:16:00,
2013-03-25 15:21:00,36.7,33.2,29.36,ENE,68,3.5,3.5,87,0.03,RA,,0.06,WeatherDisplay:10.37,2013-03-25 19:21:00,
2013-03-25 15:27:00,36.7,33.2,29.36,NE,45,3.5,3.5,87,0.03,OVC,,0.06,WeatherDisplay:10.37,2013-03-25 19:27:00,
2013-03-25 15:32:00,36.9,33.4,29.36,NE,45,3.2,3.2,87,0.03,OVC,,0.06,WeatherDisplay:10.37,2013-03-25 19:32:00,
2013-03-25 15:37:00,36.7,33.5,29.36,NE,45,3.5,3.5,88,0.03,OVC,,0.06,WeatherDisplay:10.37,2013-03-25 19:37:00,
2013-03-25 15:42:00,36.7,33.5,29.35,WNW,292,4.6,4.6,88,0.03,OVC,,0.06,WeatherDisplay:10.37,2013-03-25 19:42:00,
2013-03-25 15:47:00,36.9,33.6,29.35,ENE,68,3.5,3.5,88,0.03,OVC,,0.06,WeatherDisplay:10.37,2013-03-25 19:47:00,
2013-03-25 15:52:00,36.7,33.5,29.35,ESE,112,5.8,5.8,88,0.03,OVC,,0.06,WeatherDisplay:10.37,2013-03-25 19:52:00,
2013-03-25 15:58:00,36.7,33.5,29.35,ENE,68,5.3,5.3,88,0.03,OVC,,0.06,WeatherDisplay:10.37,2013-03-25 19:58:00,
2013-03-25 16:03:00,36.7,33.5,29.35,NNE,22,1.1,1.5,88,0.03,OVC,,0.06,WeatherDisplay:10.37,2013-03-25 20:03:00,
2013-03-25 16:08:00,37.0,33.8,29.35,NE,45,1.1,1.1,88,0.03,OVC,,0.06,WeatherDisplay:10.37,2013-03-25 20:08:00,
2013-03-25 16:13:00,36.9,33.6,29.35,NW,315,3.5,3.5,88,0.00,OVC,,0.06,WeatherDisplay:10.37,2013-03-25 20:13:00,
2013-03-25 16:18:00,36.9,33.6,29.35,North,0,0.0,0.7,88,0.00,OVC,,0.06,WeatherDisplay:10.37,2013-03-25 20:18:00,
2013-03-25 16:23:00,37.2,34.0,29.35,NNE,22,2.3,2.3,88,0.00,OVC,,0.06,WeatherDisplay:10.37,2013-03-25 20:23:00,
2013-03-25 16:28:00,37.2,34.3,29.35,WSW,248,3.5,3.5,89,0.00,OVC,,0.06,WeatherDisplay:10.37,2013-03-25 20:28:00,
2013-03-25 16:33:00,37.4,34.5,29.35,NNW,338,1.1,1.1,89,0.00,OVC,,0.06,WeatherDisplay:10.37,2013-03-25 20:33:00,
2013-03-25 16:38:00,37.4,34.5,29.35,NW,315,3.5,3.5,89,0.00,OVC,,0.06,WeatherDisplay:10.37,2013-03-25 20:38:00,
2013-03-25 16:43:00,37.4,34.5,29.35,NNW,338,0.0,0.7,89,0.00,OVC,,0.06,WeatherDisplay:10.37,2013-03-25 20:43:00,
2013-03-25 16:48:00,37.6,34.6,29.35,ENE,68,2.3,2.3,89,0.00,OVC,,0.06,WeatherDisplay:10.37,2013-03-25 20:48:00,
2013-03-25 16:53:00,37.2,34.0,29.35,NNW,338,3.5,3.5,88,0.03,RA,,0.08,WeatherDisplay:10.37,2013-03-25 20:53:00,
2013-03-25 16:58:00,37.2,34.0,29.35,NE,45,3.5,3.5,88,0.03,RA,,0.08,WeatherDisplay:10.37,2013-03-25 20:58:00,
2013-03-25 17:03:00,37.2,34.0,29.35,NW,315,3.5,3.5,88,0.03,OVC,,0.08,WeatherDisplay:10.37,2013-03-25 21:03:00,
2013-03-25 17:08:00,37.4,34.5,29.35,West,270,0.0,0.5,89,0.03,OVC,,0.08,WeatherDisplay:10.37,2013-03-25 21:08:00,
2013-03-25 17:13:00,37.6,34.6,29.35,WNW,292,0.0,0.1,89,0.03,OVC,,0.08,WeatherDisplay:10.37,2013-03-25 21:13:00,
2013-03-25 17:18:00,37.6,34.6,29.35,NNW,338,0.0,0.6,89,0.03,OVC,,0.08,WeatherDisplay:10.37,2013-03-25 21:18:00,
2013-03-25 17:23:00,37.4,34.5,29.35,WSW,248,2.3,2.3,89,0.03,OVC,,0.08,WeatherDisplay:10.37,2013-03-25 21:23:00,
2013-03-25 17:28:00,37.4,34.5,29.35,NW,315,2.3,2.3,89,0.03,OVC,,0.08,WeatherDisplay:10.37,2013-03-25 21:28:00,
2013-03-25 17:33:00,37.2,34.3,29.35,North,0,2.3,2.3,89,0.03,OVC,,0.08,WeatherDisplay:10.37,2013-03-25 21:33:00,
2013-03-25 17:38:00,37.2,34.3,29.35,NNW,338,4.6,4.6,89,0.03,OVC,,0.08,WeatherDisplay:10.37,2013-03-25 21:38:00,
2013-03-25 17:43:00,37.2,34.3,29.35,NW,315,0.0,1.1,89,0.03,OVC,,0.08,WeatherDisplay:10.37,2013-03-25 21:43:00,
2013-03-25 17:48:00,37.2,34.3,29.35,NW,315,2.3,2.3,89,0.03,OVC,,0.08,WeatherDisplay:10.37,2013-03-25 21:48:00,
2013-03-25 17:53:00,37.2,34.3,29.35,NNW,338,2.3,2.3,89,0.03,RA,,0.11,WeatherDisplay:10.37,2013-03-25 21:53:00,
2013-03-25 17:58:00,37.2,34.3,29.35,NW,315,3.5,3.5,89,0.03,RA,,0.11,WeatherDisplay:10.37,2013-03-25 21:58:00,
2013-03-25 18:03:00,37.2,34.3,29.35,NW,315,0.0,1.4,89,0.03,OVC,,0.11,WeatherDisplay:10.37,2013-03-25 22:03:00,
2013-03-25 18:08:00,37.2,34.3,29.35,NW,315,0.0,1.4,89,0.03,OVC,,0.11,WeatherDisplay:10.37,2013-03-25 22:08:00,
2013-03-25 18:13:00,37.2,34.3,29.35,NW,315,0.0,1.4,89,0.03,OVC,,0.11,WeatherDisplay:10.37,2013-03-25 22:13:00,
2013-03-25 18:18:00,37.2,34.3,29.35,NW,315,0.0,1.4,89,0.03,OVC,,0.11,WeatherDisplay:10.37,2013-03-25 22:18:00,
2013-03-25 18:23:00,37.2,34.3,29.35,NW,315,0.0,1.4,89,0.03,OVC,,0.11,WeatherDisplay:10.37,2013-03-25 22:23:00,
2013-03-25 18:28:00,37.2,34.3,29.35,NW,315,0.0,1.4,89,0.03,OVC,,0.11,WeatherDisplay:10.37,2013-03-25 22:28:00,
2013-03-25 18:33:00,37.2,34.3,29.35,NW,315,0.0,1.4,89,0.03,OVC,,0.11,WeatherDisplay:10.37,2013-03-25 22:33:00,
2013-03-25 18:38:00,37.2,34.3,29.35,NW,315,0.0,1.4,89,0.03,OVC,,0.11,WeatherDisplay:10.37,2013-03-25 22:38:00,
2013-03-25 18:43:00,37.2,34.3,29.35,NW,315,0.0,1.4,89,0.03,OVC,,0.11,WeatherDisplay:10.37,2013-03-25 22:43:00,
2013-03-25 18:48:00,37.2,34.3,29.35,NW,315,0.0,1.4,89,0.03,OVC,,0.11,WeatherDisplay:10.37,2013-03-25 22:48:00,
2013-03-25 18:53:00,37.2,34.3,29.35,NW,315,0.0,1.4,89,0.00,OVC,,0.11,WeatherDisplay:10.37,2013-03-25 22:53:00,
2013-03-25 18:58:00,37.2,34.3,29.35,NW,315,0.0,1.4,89,0.00,OVC,,0.11,WeatherDisplay:10.37,2013-03-25 22:58:00,
2013-03-25 19:03:00,37.2,34.3,29.35,NW,315,0.0,1.4,89,0.00,OVC,,0.11,WeatherDisplay:10.37,2013-03-25 23:03:00,
2013-03-25 19:08:00,37.2,34.3,29.35,NW,315,0.0,1.4,89,0.00,OVC,,0.11,WeatherDisplay:10.37,2013-03-25 23:08:00,
2013-03-25 19:13:00,37.2,34.3,29.35,NW,315,0.0,1.4,89,0.00,OVC,,0.11,WeatherDisplay:10.37,2013-03-25 23:13:00,
2013-03-25 19:18:00,37.2,34.3,29.35,NW,315,0.0,1.4,89,0.00,OVC,,0.11,WeatherDisplay:10.37,2013-03-25 23:18:00,
2013-03-25 19:23:00,37.2,34.3,29.35,NW,315,0.0,1.4,89,0.00,OVC,,0.11,WeatherDisplay:10.37,2013-03-25 23:23:00,
2013-03-25 19:29:00,37.2,34.3,29.35,NW,315,0.0,1.4,89,0.00,OVC,,0.11,WeatherDisplay:10.37,2013-03-25 23:29:00,
2013-03-25 19:34:00,37.2,34.3,29.35,NW,315,0.0,1.4,89,0.00,OVC,,0.11,WeatherDisplay:10.37,2013-03-25 23:34:00,
2013-03-25 19:39:00,37.2,34.3,29.35,NW,315,0.0,1.4,89,0.00,OVC,,0.11,WeatherDisplay:10.37,2013-03-25 23:39:00,
2013-03-25 19:44:00,37.2,34.3,29.35,NW,315,0.0,1.4,89,0.00,OVC,,0.11,WeatherDisplay:10.37,2013-03-25 23:44:00,
2013-03-25 19:49:00,37.2,34.3,29.35,NW,315,0.0,1.4,89,0.00,OVC,,0.11,WeatherDisplay:10.37,2013-03-25 23:49:00,
2013-03-25 19:54:00,37.2,34.3,29.35,NW,315,0.0,1.4,89,0.00,OVC,,0.11,WeatherDisplay:10.37,2013-03-25 23:54:00,
2013-03-25 19:59:00,37.2,34.3,29.35,NW,315,0.0,1.4,89,0.00,OVC,,0.11,WeatherDisplay:10.37,2013-03-25 23:59:00,
2013-03-25 20:04:00,37.2,34.3,29.35,NW,315,0.0,1.4,89,0.00,OVC,,0.11,WeatherDisplay:10.37,2013-03-26 00:04:00,
2013-03-25 20:09:00,36.7,34.0,29.42,NW,315,2.3,2.3,90,0.00,OVC,,0.11,WeatherDisplay:10.37,2013-03-26 00:09:00,
2013-03-25 20:14:00,36.7,34.0,29.42,NW,315,2.9,2.9,90,0.00,OVC,,0.11,WeatherDisplay:10.37,2013-03-26 00:14:00,
2013-03-25 20:19:00,36.7,34.0,29.42,WNW,292,1.1,1.3,90,0.00,OVC,,0.11,WeatherDisplay:10.37,2013-03-26 00:19:00,
2013-03-25 20:24:00,36.9,34.2,29.42,NW,315,2.3,2.3,90,0.00,OVC,,0.11,WeatherDisplay:10.37,2013-03-26 00:24:00,
2013-03-25 20:29:00,36.9,34.2,29.44,NNW,338,2.3,2.3,90,0.00,OVC,,0.11,WeatherDisplay:10.37,2013-03-26 00:29:00,
2013-03-25 20:34:00,36.9,34.2,29.44,North,0,3.5,3.5,90,0.00,OVC,,0.11,WeatherDisplay:10.37,2013-03-26 00:34:00,
2013-03-25 20:39:00,36.9,34.2,29.44,West,270,3.5,3.5,90,0.00,OVC,,0.11,WeatherDisplay:10.37,2013-03-26 00:39:00,
2013-03-25 20:44:00,36.9,33.9,29.44,NNW,338,4.6,4.6,89,0.00,OVC,,0.11,WeatherDisplay:10.37,2013-03-26 00:44:00,
2013-03-25 20:49:00,36.9,33.9,29.45,NW,315,6.9,6.9,89,0.00,OVC,,0.11,WeatherDisplay:10.37,2013-03-26 00:49:00,
2013-03-25 20:54:00,36.9,33.9,29.45,NW,315,2.3,2.3,89,0.00,OVC,,0.11,WeatherDisplay:10.37,2013-03-26 00:54:00,
2013-03-25 20:59:00,36.9,33.9,29.45,NNW,338,3.5,3.5,89,0.00,OVC,,0.11,WeatherDisplay:10.37,2013-03-26 00:59:00,
2013-03-25 21:04:00,36.9,33.9,29.45,NW,315,2.3,2.3,89,0.00,OVC,,0.11,WeatherDisplay:10.37,2013-03-26 01:04:00,
2013-03-25 21:09:00,36.9,33.9,29.47,NNW,338,2.3,2.3,89,0.00,OVC,,0.11,WeatherDisplay:10.37,2013-03-26 01:09:00,
2013-03-25 21:14:00,36.9,33.9,29.47,NNW,338,3.5,3.5,89,0.00,OVC,,0.11,WeatherDisplay:10.37,2013-03-26 01:14:00,
2013-03-25 21:19:00,36.9,33.9,29.47,ENE,68,4.6,4.6,89,0.00,OVC,,0.11,WeatherDisplay:10.37,2013-03-26 01:19:00,
2013-03-25 21:24:00,36.9,33.9,29.47,NW,315,6.9,6.9,89,0.00,OVC,,0.11,WeatherDisplay:10.37,2013-03-26 01:24:00,
2013-03-25 21:29:00,36.7,33.7,29.47,NNW,338,3.5,3.5,89,0.00,OVC,,0.11,WeatherDisplay:10.37,2013-03-26 01:29:00,
2013-03-25 21:34:00,36.9,33.9,29.47,NNE,22,2.3,2.3,89,0.00,OVC,,0.11,WeatherDisplay:10.37,2013-03-26 01:34:00,
2013-03-25 21:39:00,36.7,33.7,29.47,NNW,338,3.5,3.5,89,0.00,OVC,,0.11,WeatherDisplay:10.37,2013-03-26 01:39:00,
2013-03-25 21:45:00,36.7,33.7,29.48,NNW,338,1.1,1.4,89,0.00,OVC,,0.11,WeatherDisplay:10.37,2013-03-26 01:45:00,
2013-03-25 21:50:00,36.5,33.6,29.48,NNW,338,5.2,5.2,89,0.00,OVC,,0.11,WeatherDisplay:10.37,2013-03-26 01:50:00,
2013-03-25 21:55:00,36.5,33.6,29.48,NNW,338,4.6,4.6,89,0.00,OVC,,0.11,WeatherDisplay:10.37,2013-03-26 01:55:00,
2013-03-25 22:00:00,36.3,33.4,29.48,NNW,338,0.0,2.3,89,0.00,OVC,,0.11,WeatherDisplay:10.37,2013-03-26 02:00:00,
2013-03-25 22:05:00,36.5,33.6,29.48,NNW,338,1.1,1.1,89,0.00,OVC,,0.11,WeatherDisplay:10.37,2013-03-26 02:05:00,
2013-03-25 22:10:00,36.5,33.6,29.48,NW,315,2.3,2.3,89,0.00,OVC,,0.11,WeatherDisplay:10.37,2013-03-26 02:10:00,
2013-03-25 22:15:00,36.1,33.2,29.48,NW,315,2.0,2.0,89,0.00,OVC,,0.11,WeatherDisplay:10.37,2013-03-26 02:15:00,
2013-03-25 22:20:00,36.1,33.2,29.48,NW,315,2.8,2.8,89,0.00,OVC,,0.11,WeatherDisplay:10.37,2013-03-26 02:20:00,
2013-03-25 22:25:00,36.1,33.2,29.48,NW,315,2.3,2.3,89,0.00,OVC,,0.11,WeatherDisplay:10.37,2013-03-26 02:25:00,
2013-03-25 22:30:00,36.0,33.0,29.48,NW,315,1.1,1.1,89,0.00,OVC,,0.11,WeatherDisplay:10.37,2013-03-26 02:30:00,
2013-03-25 22:35:00,36.0,33.0,29.48,NNW,338,2.3,2.3,89,0.00,OVC,,0.11,WeatherDisplay:10.37,2013-03-26 02:35:00,
2013-03-25 22:40:00,36.1,33.2,29.48,WNW,292,0.0,0.8,89,0.00,OVC,,0.11,WeatherDisplay:10.37,2013-03-26 02:40:00,
2013-03-25 22:45:00,36.1,33.2,29.48,NW,315,0.0,0.2,89,0.00,OVC,,0.11,WeatherDisplay:10.37,2013-03-26 02:45:00,
2013-03-25 22:50:00,36.0,33.0,29.48,WNW,292,0.0,0.1,89,0.00,OVC,,0.11,WeatherDisplay:10.37,2013-03-26 02:50:00,
2013-03-25 22:55:00,36.0,33.3,29.48,SSW,202,0.0,0.0,90,0.00,OVC,,0.11,WeatherDisplay:10.37,2013-03-26 02:55:00,
2013-03-25 23:00:00,36.0,33.3,29.48,SW,225,0.0,0.0,90,0.00,OVC,,0.11,WeatherDisplay:10.37,2013-03-26 03:00:00,
2013-03-25 23:05:00,36.0,33.3,29.48,West,270,0.0,0.0,90,0.00,OVC,,0.11,WeatherDisplay:10.37,2013-03-26 03:05:00,
2013-03-25 23:10:00,36.0,33.3,29.48,WSW,248,0.0,0.0,90,0.00,OVC,,0.11,WeatherDisplay:10.37,2013-03-26 03:10:00,
2013-03-25 23:15:00,36.0,33.3,29.48,WNW,292,0.0,0.0,90,0.00,OVC,,0.11,WeatherDisplay:10.37,2013-03-26 03:15:00,
2013-03-25 23:20:00,36.0,33.3,29.48,West,270,0.0,0.1,90,0.03,RA,,0.14,WeatherDisplay:10.37,2013-03-26 03:20:00,
2013-03-25 23:25:00,36.1,33.5,29.48,West,270,1.1,1.1,90,0.03,RA,,0.14,WeatherDisplay:10.37,2013-03-26 03:25:00,
2013-03-25 23:30:00,36.1,33.5,29.48,NW,315,4.6,4.6,90,0.03,OVC,,0.14,WeatherDisplay:10.37,2013-03-26 03:30:00,
2013-03-25 23:35:00,36.0,33.0,29.48,NNW,338,2.5,2.5,89,0.03,OVC,,0.14,WeatherDisplay:10.37,2013-03-26 03:35:00,
2013-03-25 23:40:00,36.1,33.2,29.48,NNE,22,8.1,8.1,89,0.03,OVC,,0.14,WeatherDisplay:10.37,2013-03-26 03:40:00,
2013-03-25 23:45:00,36.5,33.3,29.49,NW,315,4.6,4.6,88,0.03,OVC,,0.14,WeatherDisplay:10.37,2013-03-26 03:45:00,
2013-03-25 23:50:00,36.5,33.0,29.49,NW,315,4.0,4.0,87,0.03,OVC,,0.14,WeatherDisplay:10.37,2013-03-26 03:50:00,
2013-03-25 23:55:00,36.5,33.0,29.49,NNW,338,4.6,4.6,87,0.03,OVC,,0.14,WeatherDisplay:10.37,2013-03-26 03:55:00,